Date String (YYYY-MM-DD hh:mm:ss) UTC,Instrument flags,absolute air pressure of the measurement (hPa),sample flow rate (lpm),inlet stack bypass flow (lpm),air temperature of the measurement (°C),ambient temperature measured by the external sensor (°C),aerosol sample conditioner tube jacket temperature (°C),OPC LED temperature (°C),internal box temperature (°C),relative humidity of the measurement (%),span deviation,mass concentration of particles derived from Lorenz-Mie calculation of OPC scattering (μg/m³),mass concentration of particles derived from Lorenz-Mie calculation of OPC scattering (μg/m³),mass concentration of particles derived from Lorenz-Mie calculation of OPC scattering (μg/m³)
DateTimeUTC,F1_M11,P_M11,Q1_M11,Q2_M11,T1_M11,T2_M11,T3_M11,T4_M11,T5_M11,U1_M11,ZSPAN_M11,X2_M11,X0_M11,X1_M11
2023-11-07 07:00:00,SystemResetWarning,0822.9,5.00,000.00,028.3,027.1,000.0,036.7,029.6,8.7,0000.0,0003.53,0009.05,0003.05
2023-11-07 07:01:00,SystemResetWarning,0822.9,5.00,000.00,028.3,027.1,000.0,036.7,029.6,8.6,0000.0,0003.50,0008.47,0003.00
2023-11-07 07:02:00,SystemResetWarning,0822.8,5.00,000.00,028.2,027.1,000.0,036.7,029.6,8.7,0000.0,0003.47,0008.45,0002.95
2023-11-07 07:03:00,SystemResetWarning,0823.0,4.99,000.00,028.2,027.1,000.0,036.7,029.6,8.5,0000.0,0003.44,0008.18,0002.89
2023-11-07 07:04:00,SystemResetWarning,0823.0,5.00,000.00,028.2,027.1,000.0,036.7,029.6,8.5,0000.0,0003.40,0008.61,0002.85
2023-11-07 07:05:00,SystemResetWarning,0822.8,5.00,000.00,028.2,027.1,000.0,036.7,029.6,8.5,0000.0,0003.37,0008.78,0002.81
2023-11-07 07:06:00,SystemResetWarning,0822.9,5.01,000.00,028.2,027.1,000.0,036.7,029.6,8.5,0000.0,0003.34,0008.71,0002.74
2023-11-07 07:07:00,SystemResetWarning,0823.0,5.00,000.00,028.2,027.1,000.0,036.7,029.6,8.4,0000.0,0003.29,0008.83,0002.69
2023-11-07 07:08:00,SystemResetWarning,0823.0,5.00,000.00,028.2,027.1,000.0,036.7,029.6,8.4,0000.0,0003.26,0009.23,0002.63
2023-11-07 07:09:00,SystemResetWarning,0822.9,5.00,000.00,028.2,027.1,000.0,036.7,029.6,8.4,0000.0,0003.19,0008.96,0002.56
2023-11-07 07:10:00,SystemResetWarning,0822.8,4.99,000.00,028.2,027.1,000.0,036.7,029.6,8.5,0000.0,0003.13,0007.86,0002.49
2023-11-07 07:11:00,SystemResetWarning,0822.9,4.99,000.00,028.2,027.1,000.0,036.7,029.6,8.6,0000.0,0003.11,0007.43,0002.46
2023-11-07 07:12:00,SystemResetWarning,0822.9,4.99,000.00,028.2,027.1,000.0,036.7,029.6,8.6,0000.0,0003.05,0007.32,0002.41
2023-11-07 07:13:00,SystemResetWarning,0822.9,4.99,000.00,028.2,027.0,000.0,036.7,029.6,8.5,0000.0,0002.98,0007.17,0002.37
2023-11-07 07:14:00,SystemResetWarning,0822.9,5.00,000.00,028.2,027.0,000.0,036.7,029.6,8.5,0000.0,0002.90,0006.96,0002.34
2023-11-07 07:15:00,SystemResetWarning,0823.1,5.01,000.00,028.2,027.0,000.0,036.7,029.6,8.5,0000.0,0002.84,0005.91,0002.29
2023-11-07 07:16:00,SystemResetWarning,0822.9,5.01,000.00,028.2,027.0,000.0,036.6,029.5,8.5,0000.0,0002.78,0005.46,0002.26
2023-11-07 07:17:00,SystemResetWarning,0822.9,5.01,000.00,028.2,027.0,000.0,036.6,029.5,8.5,0000.0,0002.73,0005.34,0002.24
2023-11-07 07:18:00,SystemResetWarning,0822.9,5.00,000.00,028.2,027.0,000.0,036.6,029.5,8.6,0000.0,0002.72,0005.48,0002.23
2023-11-07 07:19:00,SystemResetWarning,0823.2,4.99,000.00,028.2,027.0,000.0,036.6,029.5,8.7,0000.0,0002.76,0004.75,0002.23
2023-11-07 07:20:00,SystemResetWarning,0822.8,4.98,000.00,028.2,027.0,000.0,036.6,029.5,8.7,0000.0,0002.78,0004.78,0002.21
2023-11-07 07:21:00,SystemResetWarning,0822.8,5.01,000.00,028.2,027.0,000.0,036.6,029.5,8.6,0000.0,0002.79,0004.84,0002.21
2023-11-07 07:22:00,SystemResetWarning,0823.2,5.01,000.00,028.2,027.0,000.0,036.6,029.5,8.6,0000.0,0002.78,0004.75,0002.22
2023-11-07 07:23:00,SystemResetWarning,0823.1,5.00,000.00,028.1,026.9,000.0,036.6,029.5,8.7,0000.0,0002.82,0004.99,0002.23
2023-11-07 07:24:00,SystemResetWarning,0823.2,4.99,000.00,028.1,026.9,000.0,036.6,029.5,8.6,0000.0,0002.85,0006.21,0002.26
2023-11-07 07:25:00,SystemResetWarning,0822.8,5.00,000.00,028.1,026.9,000.0,036.6,029.5,8.6,0000.0,0002.87,0006.54,0002.26
2023-11-07 07:26:00,SystemResetWarning,0822.7,5.00,000.00,028.1,026.9,000.0,036.6,029.5,8.7,0000.0,0002.91,0006.67,0002.28
2023-11-07 07:27:00,SystemResetWarning,0822.8,5.00,000.00,028.1,027.0,000.0,036.6,029.5,8.7,0000.0,0002.96,0006.87,0002.29
2023-11-07 07:28:00,SystemResetWarning,0822.7,5.01,000.00,028.1,027.0,000.0,036.6,029.5,8.7,0000.0,0002.97,0007.26,0002.31
2023-11-07 07:29:00,SystemResetWarning,0822.7,4.99,000.00,028.1,027.0,000.0,036.6,029.5,8.7,0000.0,0002.97,0007.23,0002.33
2023-11-07 07:30:00,SystemResetWarning,0822.7,5.01,000.00,028.1,027.0,000.0,036.6,029.5,8.7,0000.0,0002.95,0007.03,0002.35
2023-11-07 07:31:00,SystemResetWarning,0822.7,5.01,000.00,028.1,026.9,000.0,036.6,029.5,8.6,0000.0,0002.94,0007.40,0002.35
2023-11-07 07:32:00,SystemResetWarning,0822.8,5.00,000.00,028.1,027.0,000.0,036.6,029.5,8.6,0000.0,0002.96,0007.59,0002.38
2023-11-07 07:33:00,SystemResetWarning,0822.8,4.99,000.00,028.1,026.9,000.0,036.6,029.5,8.7,0000.0,0002.99,0009.23,0002.41
2023-11-07 07:34:00,SystemResetWarning,0822.8,4.99,000.00,028.1,026.9,000.0,036.6,029.4,8.7,0000.0,0003.00,0009.27,0002.43
2023-11-07 07:35:00,SystemResetWarning,0822.8,5.00,000.00,028.1,026.9,000.0,036.6,029.4,8.7,0000.0,0003.02,0008.85,0002.44
2023-11-07 07:36:00,SystemResetWarning,0822.7,5.00,000.00,028.1,026.9,000.0,036.6,029.4,8.6,0000.0,0003.07,0008.78,0002.47
2023-11-07 07:37:00,SystemResetWarning,0822.9,5.01,000.00,028.1,026.9,000.0,036.5,029.5,8.6,0000.0,0003.08,0008.99,0002.50
2023-11-07 07:38:00,SystemResetWarning,0822.8,5.01,000.00,028.1,027.0,000.0,036.5,029.5,8.6,0000.0,0003.08,0008.94,0002.52
2023-11-07 07:39:00,SystemResetWarning,0823.0,5.00,000.00,028.1,027.0,000.0,036.5,029.5,8.7,0000.0,0003.09,0008.92,0002.52
2023-11-07 07:40:00,SystemResetWarning,0822.6,4.99,000.00,028.1,026.9,000.0,036.5,029.5,8.7,0000.0,0003.12,0008.75,0002.53
2023-11-07 07:41:00,SystemResetWarning,0822.7,4.99,000.00,028.1,026.9,000.0,036.5,029.4,8.7,0000.0,0003.11,0008.72,0002.54
2023-11-07 07:42:00,SystemResetWarning,0822.7,5.00,000.00,028.1,026.9,000.0,036.5,029.4,8.7,0000.0,0003.13,0008.53,0002.56
2023-11-07 07:43:00,SystemResetWarning,0822.8,5.00,000.00,028.1,026.9,000.0,036.5,029.4,8.6,0000.0,0003.16,0008.42,0002.55
2023-11-07 07:44:00,SystemResetWarning,0822.6,5.00,000.00,028.1,026.9,000.0,036.5,029.4,8.6,0000.0,0003.16,0006.55,0002.51
2023-11-07 07:45:00,SystemResetWarning,0822.6,5.01,000.00,028.1,026.9,000.0,036.5,029.4,8.7,0000.0,0003.15,0006.63,0002.51
2023-11-07 07:46:00,SystemResetWarning,0822.6,5.01,000.00,028.1,026.9,000.0,036.5,029.4,8.7,0000.0,0003.17,0006.59,0002.51
2023-11-07 07:47:00,SystemResetWarning,0822.7,5.00,000.00,028.1,026.9,000.0,036.5,029.4,8.6,0000.0,0003.17,0006.25,0002.51
2023-11-07 07:48:00,SystemResetWarning,0822.6,5.00,000.00,028.1,026.9,000.0,036.5,029.4,8.6,0000.0,0003.14,0005.57,0002.50
2023-11-07 07:49:00,SystemResetWarning,0822.9,4.99,000.00,028.1,026.9,000.0,036.5,029.5,8.6,0000.0,0003.15,0005.78,0002.50
2023-11-07 07:50:00,SystemResetWarning,0822.6,4.99,000.00,028.1,026.9,000.0,036.5,029.5,8.6,0000.0,0003.12,0005.41,0002.49
2023-11-07 07:51:00,SystemResetWarning,0822.8,5.00,000.00,028.1,026.9,000.0,036.5,029.4,8.6,0000.0,0003.10,0005.28,0002.46
2023-11-07 07:52:00,SystemResetWarning,0822.8,5.00,000.00,028.1,026.9,000.0,036.5,029.4,8.6,0000.0,0003.10,0005.32,0002.43
2023-11-07 07:53:00,SystemResetWarning,0822.7,5.00,000.00,028.1,027.0,000.0,036.5,029.5,8.6,0000.0,0003.09,0005.53,0002.41
2023-11-07 07:54:00,SystemResetWarning,0822.8,5.00,000.00,028.1,027.0,000.0,036.5,029.5,8.6,0000.0,0003.03,0006.39,0002.42
2023-11-07 07:55:00,SystemResetWarning,0822.8,5.01,000.00,028.1,027.0,000.0,036.5,029.5,8.7,0000.0,0003.10,0007.16,0002.43
2023-11-07 07:56:00,SystemResetWarning,0822.8,5.01,000.00,028.1,027.0,000.0,036.5,029.5,8.8,0000.0,0003.09,0007.83,0002.41
2023-11-07 07:57:00,SystemResetWarning,0822.8,5.00,000.00,028.1,027.0,000.0,036.5,029.5,8.8,0000.0,0003.05,0007.78,0002.41
2023-11-07 07:58:00,SystemResetWarning,0822.8,5.00,000.00,028.1,027.0,000.0,036.5,029.5,8.8,0000.0,0003.09,0008.15,0002.43
2023-11-07 07:59:00,SystemResetWarning,0822.7,4.99,000.00,028.1,027.0,000.0,036.5,029.4,8.8,0000.0,0003.11,0008.56,0002.43
